FW2442 Weather Reports


Display with metric or nautical units.
time (UTC)temp
F
wind
direction
speed
MPH
gust
MPH
rain 1hr
in
rain 24hr
in
rain mn
in
humidity
%
barometer
mb
20260903190557 72 284 1.0 3.0 0.00 0.00 0.00 61 1016.2
20260903185518 72 141 3.0 5.0 0.00 0.00 0.00 57 1016.3
20260903184520 73 0.0 0.0 0.00 0.00 0.00 57 1016.4
20260903183518 73 34 3.0 5.0 0.00 0.00 0.00 55 1016.5
20260903182520 73 17 7.0 8.0 0.00 0.00 0.00 55 1016.5
20260903181600 73 22 7.0 9.0 0.00 0.00 0.00 56 1016.4
20260903180520 73 15 8.0 9.0 0.00 0.00 0.00 56 1016.4
20260903175519 72 23 8.0 10.0 0.00 0.00 0.00 56 1016.4
20260903174520 73 17 7.0 8.0 0.00 0.00 0.00 57 1016.4
20260903173518 73 17 7.0 8.0 0.00 0.00 0.00 56 1016.4
20260903172519 73 13 7.0 8.0 0.00 0.00 0.00 57 1016.4
20260903171517 72 18 6.0 8.0 0.00 0.00 0.00 58 1016.2
20260903170520 73 15 6.0 7.0 0.00 0.00 0.00 58 1016.2
20260903165518 74 33 6.0 7.0 0.00 0.00 0.00 54 1016.0
20260903164520 74 57 6.0 7.0 0.00 0.00 0.00 55 1015.8
20260903163518 75 61 5.0 7.0 0.00 0.00 0.00 56 1015.7
20260903162520 76 32 5.0 7.0 0.00 0.00 0.00 55 1015.6
20260903161538 76 38 4.0 7.0 0.00 0.00 0.00 54 1015.6
20260903160518 77 22 2.0 7.0 0.00 0.00 0.00 52 1015.6
20260903155519 78 24 3.0 6.0 0.00 0.00 0.00 51 1015.5
20260903154518 78 12 2.0 5.0 0.00 0.00 0.00 51 1015.6
20260903153518 79 314 3.0 5.0 0.00 0.00 0.00 47 1015.5
20260903152518 79 0.0 0.0 0.00 0.00 0.00 47 1015.5
20260903151519 79 342 3.0 8.0 0.00 0.00 0.00 48 1015.5
20260903150539 80 3 10.0 16.0 0.00 0.00 0.00 46 1015.5
20260903145519 80 20 8.0 17.0 0.00 0.00 0.00 46 1015.6
20260903144518 80 315 9.0 13.0 0.00 0.00 0.00 47 1015.6
20260903143537 80 285 11.0 19.0 0.00 0.00 0.00 47 1015.7
20260903142518 79 260 7.0 16.0 0.00 0.00 0.00 47 1015.8
20260903141518 81 228 12.0 21.0 0.00 0.00 0.00 45 1015.7
20260903140518 80 275 13.0 19.0 0.00 0.00 0.00 47 1015.8
20260903135539 81 323 11.0 24.0 0.00 0.00 0.00 47 1015.8
20260903134520 80 315 11.0 21.0 0.00 0.00 0.00 48 1015.9
20260903133538 81 270 13.0 32.0 0.00 0.00 0.00 47 1015.9
20260903132520 81 269 11.0 21.0 0.00 0.00 0.00 47 1016.0
20260903131518 81 280 14.0 22.0 0.00 0.00 0.00 46 1016.2
20260903130519 80 356 10.0 21.0 0.00 0.00 0.00 48 1016.2
20260903125518 81 348 13.0 20.0 0.00 0.00 0.00 48 1016.3
20260903124540 80 17 4.0 8.0 0.00 0.00 0.00 49 1016.4
20260903123539 80 274 17.0 22.0 0.00 0.00 0.00 49 1016.6
20260903122521 80 280 9.0 28.0 0.00 0.00 0.00 49 1016.6
20260903121517 79 260 10.0 19.0 0.00 0.00 0.00 48 1016.8
20260903120519 79 304 13.0 24.0 0.00 0.00 0.00 47 1016.9
20260903115539 79 297 18.0 30.0 0.00 0.00 0.00 50 1017.0
20260903114520 77 338 8.0 14.0 0.00 0.00 0.00 53 1017.1
20260903113520 78 281 10.0 23.0 0.00 0.00 0.00 53 1017.2
20260903112519 78 278 20.0 30.0 0.00 0.00 0.00 53 1017.3
20260903111517 79 10 7.0 13.0 0.00 0.00 0.00 53 1017.4
20260903110519 78 327 11.0 17.0 0.00 0.00 0.00 55 1017.5
20260903105519 77 223 8.0 16.0 0.00 0.00 0.00 55 1017.6
20260903104539 77 283 15.0 30.0 0.00 0.00 0.00 53 1017.7
20260903103518 77 309 13.0 24.0 0.00 0.00 0.00 54 1017.8
20260903102558 77 307 11.0 21.0 0.00 0.00 0.00 56 1017.9
20260903101518 76 299 9.0 21.0 0.00 0.00 0.00 57 1018.0
20260903100520 76 323 12.0 21.0 0.00 0.00 0.00 58 1018.1
20260903095518 76 292 15.0 28.0 0.00 0.00 0.00 59 1018.2
20260903094517 76 303 14.0 22.0 0.00 0.00 0.00 60 1018.3
20260903093519 75 340 10.0 21.0 0.00 0.00 0.00 61 1018.4
20260903092519 74 261 11.0 22.0 0.00 0.00 0.00 58 1018.5
20260903091539 73 293 13.0 30.0 0.00 0.00 0.00 65 1018.6
20260903090517 73 314 15.0 21.0 0.00 0.00 0.00 68 1018.7
20260903085559 72 313 10.0 17.0 0.00 0.00 0.00 70 1018.8
20260903084517 72 292 13.0 30.0 0.00 0.00 0.00 70 1018.9
20260903083537 71 338 14.0 18.0 0.00 0.00 0.00 68 1018.9
20260903082518 72 321 13.0 22.0 0.00 0.00 0.00 68 1019.0
20260903081519 72 320 11.0 20.0 0.00 0.00 0.00 68 1019.0
20260903080537 71 292 19.0 31.0 0.00 0.00 0.00 71 1019.0
20260903075519 70 298 19.0 25.0 0.00 0.00 0.00 73 1019.0
20260903074518 70 301 19.0 31.0 0.00 0.00 0.00 77 1019.0
20260903073518 69 289 20.0 30.0 0.00 0.00 0.00 77 1019.1
20260903072519 69 287 20.0 28.0 0.00 0.00 0.00 79 1018.9
20260903071519 69 288 18.0 27.0 0.00 0.00 0.00 77 1019.0
20260903070516 69 317 14.0 28.0 0.00 0.00 0.00 78 1019.0
20260903065518 68 298 16.0 28.0 0.00 0.00 0.00 81 1019.0
20260903064520 67 288 22.0 29.0 0.00 0.00 0.00 81 1019.0
20260903063519 67 279 19.0 30.0 0.00 0.00 0.00 80 1019.0
20260903062517 67 283 20.0 31.0 0.00 0.00 0.00 81 1019.0
20260903061538 67 287 20.0 27.0 0.00 0.00 0.00 79 1019.0
20260903060518 67 293 18.0 23.0 0.00 0.00 0.00 78 1019.1
20260903055518 68 349 13.0 24.0 0.00 0.00 0.00 76 1019.0
20260903054516 68 353 6.0 10.0 0.00 0.00 0.00 77 1019.0
20260903053519 65 36 4.0 10.0 0.00 0.00 0.00 83 1019.1
20260903052520 64 347 8.0 13.0 0.00 0.00 0.00 86 1019.1
20260903051519 63 5 6.0 11.0 0.00 0.00 0.00 87 1019.0
20260903050521 63 353 9.0 13.0 0.00 0.00 0.00 87 1019.1
20260903045517 64 4 10.0 19.0 0.00 0.00 0.00 85 1019.0
20260903044521 63 346 7.0 13.0 0.00 0.00 0.00 87 1019.0
20260903043518 63 10 7.0 11.0 0.00 0.00 0.00 87 1018.9
20260903042520 62 359 8.0 12.0 0.00 0.00 0.00 88 1018.9
20260903041518 62 10 10.0 14.0 0.00 0.00 0.00 89 1018.9
20260903040520 62 14 12.0 17.0 0.00 0.00 0.00 88 1018.7
20260903035518 62 14 16.0 23.0 0.00 0.00 0.00 87 1018.6
20260903034521 62 11 16.0 23.0 0.00 0.00 0.00 87 1018.8
20260903033520 62 21 13.0 19.0 0.00 0.00 0.00 86 1018.9
20260903032521 62 4 11.0 17.0 0.00 0.00 0.00 86 1018.9
20260903031517 62 2 14.0 20.0 0.00 0.00 0.00 85 1018.9
20260903030520 63 352 14.0 22.0 0.00 0.00 0.00 83 1018.8
20260903025518 63 348 14.0 22.0 0.00 0.00 0.00 82 1018.6
20260903024520 64 6 18.0 26.0 0.00 0.00 0.00 81 1018.6
20260903023519 64 355 19.0 26.0 0.00 0.00 0.00 80 1018.7
20260903022521 65 13 18.0 27.0 0.00 0.00 0.00 79 1018.6
20260903021539 65 16 14.0 27.0 0.00 0.00 0.00 77 1018.6
20260903020521 65 347 11.0 19.0 0.00 0.00 0.00 77 1018.7
20260903015517 65 354 18.0 26.0 0.00 0.00 0.00 77 1018.7
20260903014517 65 325 14.0 26.0 0.00 0.00 0.00 77 1018.8
20260903013519 66 329 13.0 23.0 0.00 0.00 0.00 76 1018.7
20260903012520 66 4 10.0 16.0 0.00 0.00 0.00 76 1018.6
20260903011539 66 10 10.0 18.0 0.00 0.00 0.00 76 1018.5
20260903010521 66 5 17.0 26.0 0.00 0.00 0.00 77 1018.5
20260903005517 66 8 12.0 19.0 0.00 0.00 0.00 77 1018.4
20260903004521 66 360 10.0 15.0 0.00 0.00 0.00 78 1018.5
20260903003539 66 358 11.0 22.0 0.00 0.00 0.00 77 1018.4
20260903002518 66 340 14.0 20.0 0.00 0.00 0.00 77 1018.4
20260903001518 66 353 17.0 25.0 0.00 0.00 0.00 76 1018.3
20260903000540 67 344 14.0 21.0 0.00 0.00 0.00 74 1018.5
20260902235518 66 343 13.0 21.0 0.00 0.00 0.00 76 1018.4
20260902234521 66 333 11.0 31.0 0.00 0.00 0.00 76 1018.4
20260902233519 67 337 12.0 17.0 0.00 0.00 0.00 74 1018.2
20260902232521 67 353 10.0 19.0 0.00 0.00 0.00 74 1018.2
20260902231538 67 335 7.0 13.0 0.00 0.00 0.00 74 1018.2
20260902230519 68 329 8.0 14.0 0.00 0.00 0.00 72 1018.3
20260902225518 68 349 8.0 12.0 0.00 0.00 0.00 71 1018.3
20260902224519 68 356 7.0 12.0 0.00 0.00 0.00 71 1018.2
20260902223518 68 5 7.0 9.0 0.00 0.00 0.00 71 1018.3
20260902222541 68 1 8.0 11.0 0.00 0.00 0.00 71 1018.3
20260902221518 68 349 8.0 11.0 0.00 0.00 0.00 71 1018.4
20260902220538 68 347 8.0 11.0 0.00 0.00 0.00 70 1018.4
20260902215559 68 356 9.0 11.0 0.00 0.00 0.00 70 1018.3
20260902214518 68 8 9.0 13.0 0.00 0.00 0.00 70 1018.2
20260902213517 69 355 11.0 16.0 0.00 0.00 0.00 70 1018.3
20260902212521 68 360 7.0 8.0 0.00 0.00 0.00 70 1018.3
20260902211519 68 6 7.0 9.0 0.00 0.00 0.00 70 1018.3
20260902210521 69 10 8.0 10.0 0.00 0.00 0.00 70 1018.2
20260902205539 69 5 9.0 11.0 0.00 0.00 0.00 69 1018.1
20260902204521 69 11 11.0 13.0 0.00 0.00 0.00 69 1018.0
20260902203519 70 16 11.0 15.0 0.00 0.00 0.00 68 1017.9
20260902202541 70 10 12.0 15.0 0.00 0.00 0.00 67 1018.0
20260902201519 70 7 11.0 15.0 0.00 0.00 0.00 67 1018.0
20260902200521 71 6 9.0 14.0 0.00 0.00 0.00 67 1018.0
20260902195518 71 4 10.0 15.0 0.00 0.00 0.00 67 1018.0
20260902194539 71 356 10.0 18.0 0.00 0.00 0.00 68 1018.1
20260902193519 71 348 11.0 18.0 0.00 0.00 0.00 68 1018.1
20260902192521 71 349 8.0 13.0 0.00 0.00 0.00 68 1018.2
20260902191517 71 360 8.0 13.0 0.00 0.00 0.00 67 1018.1